COSMOS 2526 (43432 NORAD) Tracking and Keplerian Element Data

This shows tracking and keplerian element data for the satellite.

Feedback or suggestion? Click here.




ElementValue
Catalog43432
NameCOSMOS 2526
Epoch Orbit38
Epoch Day136.62579264
Epoch Year2018
RAAN72.7733
Inclination0.0502
Eccentricity7.7E-05
Argument of Perigee82.5183
Mean Anonmoly24.3041
Mean Motion1.00273336
Decay Rate-1.39E-06
L11 43432U 18037A 18136.62579264 -.00000139 00000-0 00000-0 0 9999
L22 43432 0.0502 72.7733 0000770 82.5183 24.3041 1.00273336 385

Live tracking and technical data element details for COSMOS 2526 (NORAD 43432). COSMOS 2526 can be tracked NOW for your location showing map with azimuth and elevation plus other details from your city location.

Track the satellite on the map from your city or location and see movement details for azimuth, elevation, latitude, longitude, range, height, and movement on the map or in text.







IsCatalogInMostPopularTable: catalog: 43432, numindb: 59
Update: records affected: 1



GetName: 43432 COSMOS 2526

Hit Count: updated at: Fri, 16 Nov 2018 02:54:20 GMT